Location: Cave
(41.8160°N, 12.9350°E)
Time: 23:16:09
(UTC+02:00)

ISS - Pass Details

Date: 13 July 2019
Orbit: 409 x 418 km, 51.6° (Epoch: 19 July)

Event Time Altitude Azimuth Distance (km) Brightness Sun altitude
Exits shadow 00:51:19 17° 42° (NE) 1,132 -1.1 -26.1°
Drops below altitude 10° 00:52:14 10° 47° (NE) 1,482 -0.6 -26.1°
Sets 00:54:22 0° 53° (NE) 2,345 0.5 -26.1°
